Regional Weather Roundup
Issued by NWS Grand Forks, ND

Home | Current Version | Previous Version | Text Only | Print | Product List | Glossary Off
Versions: 1 2 3 4 5 6 7 8 9 10 11 12 13 14 15 16 17 18 19 20 21 22 23 24 25 26 27 28 29 30 31 32 33 34 35 36 37 38 39 40 41 42 43 44 45 46 47 48 49 50

000
ASUS43 KFGF 241910
RWRFGF
PRAIRIE TO PINES  WEATHER ROUNDUP
NATIONAL WEATHER SERVICE EASTERN NORTH DAKOTA/GRAND FORKS ND
100 PM CST MON NOV 24 2014

 **SATELLITE DATA USED TO AUGMENT SKY COVER AT AUTOMATED STATIONS**
 *****  WEATHER ACROSS EASTERN NORTH DAKOTA  *****

CITY           SKY/WX    TMP DP  RH WIND       PRES   REMARKS
GRAND FORKS    FAIR      15   8  73 N24G33    29.81R WCI  -4
GRAND FRKS AFB FAIR      16   9  72 N24       29.81R WCI  -2
GRAND FRKS NWS   N/A     14 N/A N/A N16         N/A  WCI  -2
DEVILS LAKE    SUNNY     16  -4  41 N17       29.85R WCI   0
FARGO          CLOUDY    14   7  73 N25       29.77R WCI  -5
WAHPETON ARPT  CLOUDY    12   5  73 N25G35    29.76R WCI  -8
$$

 ***** WEATHER ACROSS CENTRAL AND WESTERN NORTH DAKOTA  *****

CITY           SKY/WX    TMP DP  RH WIND       PRES   REMARKS
BISMARCK       SUNNY     25   1  35 NW14G22   29.93R WCI  13
MINOT          SUNNY     19   2  47 W10       29.93S WCI   7
JAMESTOWN      SUNNY     19   7  59 NW22G30   29.83R WCI   2
MINOT AFB      SUNNY     19   3  51 NW10      29.93S WCI   7
GARRISON         N/A     23   1  38 N14       29.92R WCI  11
WILLISTON      CLOUDY    18  13  80 W12       29.98S WCI   5
DICKINSON      MOSUNNY   24  15  68 W13       29.91R WCI  12
HETTINGER      SUNNY     23  16  74 NW14      29.92S WCI  11
$$

 *****  OTHER AIRPORT OBSERVATIONS IN OUR AREA  *****

CITY           SKY/WX    TMP DP  RH WIND       PRES   REMARKS
WALHALLA         N/A     14   7  73 N15G28    29.88R WCI  -1
GRAFTON AIRPOR FAIR      14   7  73 N25G32    29.83R WCI  -5
VALLEY CITY AR FLURRIES  18  10  73 N25G32    29.80R WCI  -1
CANDO          FAIR      16   0  48 N16       29.89R WCI   0
CAVALIER APRT  FAIR      14   9  79 N22G29    29.85S WCI  -4
GWINNER        CLOUDY    23  12  63 N28       29.78R WCI   6
SHEYENNE NWR     N/A     17   9  70 N17       29.95S WCI   1
ROLLA          FAIR      12   0  57 NW17      29.87R WCI  -5
 ***** THE ABOVE OBSERVATIONS ARE NON NWS ARE NOT QUALITY
       CONTROLLED AND MAY MIS-REPORT RAIN FOR SNOW...
$$

  *****  WEATHER ACROSS NORTHERN MINNESOTA  *****

CITY           SKY/WX    TMP DP  RH WIND       PRES   REMARKS
FLAG ISLAND    FLURRIES  12   7  79 N22       29.69R WCI  -7
WARROAD        FLURRIES  12   7  79 NW15      29.71R WCI  -4
ROSEAU         SUNNY     16   9  73 N18       29.73R WCI  -1
HALLOCK        MOSUNNY   10   7  85 N20G30    29.81R WCI  -8
THF RVR FALLS  CLOUDY    10   5  79 NW17G23   29.73R WCI  -7
BAUDETTE       LGT SNOW  14   8  77 NW22G29   29.64R WCI  -4
WASKISH        LGT SNOW  14  10  85 NW9G20    29.63R WCI   2
CROOKSTON      FLURRIES  12   9  85 N25G31    29.78R WCI  -8
STEPHEN NDAWN    N/A     12   7  79 N17         N/A  WCI  -5
GREENBUSH NDAW   N/A     10   9  92 NW17        N/A  WCI  -7
$$
  *****  WEATHER ACROSS CENTRAL AND WEST MINNESOTA  *****

CITY           SKY/WX    TMP DP  RH WIND       PRES   REMARKS
FOSSTON        LGT SNOW   9   5  85 NW15      29.70R WCI  -8
BEMIDJI        LGT SNOW  11   7  81 NW17G25   29.61R WCI  -6
PARK RAPIDS    MIX PCPN  11   5  77 N25G32    29.59R WCI -10
ELBOW LAKE       N/A      8   3  78 NW26G33   29.68R WCI -13
WADENA         CLOUDY    10   5  79 NW18G25   29.60R WCI  -8
DETROIT LAKES  LGT SNOW  10   7  85 N28G35    29.68R WCI -11
MOORHEAD       CLOUDY    10   9  92 N21       29.77R WCI  -9
FERGUS FALLS   CLOUDY     9   1  72 N28G33    29.74R HAZE    WCI -13
MORRIS MN      LGT SNOW  10   7  85 NW28G38   29.68R WCI -11
STAPLES        CLOUDY    12   7  79 NW18G25   29.58R WCI  -5
$$
  *****  WEATHER ELSEWHERE ACROSS MINNESOTA  *****

CITY           SKY/WX    TMP DP  RH WIND       PRES   REMARKS
DULUTH         LGT SNOW  23  18  81 N15G38    29.34R BLWGSNOWWCI  10
INTRNTL FALLS  FLURRIES  16   9  74 N16G23    29.58R WCI   1
ELY            FLURRIES  18  12  79 NW9G21    29.42R WCI   6
CLOQUET        CLOUDY    23  18  80 NW20G31   29.39R WCI   8
WHEATON        LGT SNOW  10   5  79 NW23      29.76R WCI -10
BRAINERD       MIX PCPN  17  10  74 NW20G32   29.53R WCI   1
HIBBING        FLURRIES  20  12  71 N22G28    29.46R WCI   3
ALEXANDRIA     CLOUDY    11   4  73 NW23G31   29.61R WCI  -9
SAINT CLOUD    LGT SNOW  19  11  70 NW18G29   29.53R WCI   4
MINNEAPOLIS    CLOUDY    20  14  77 NW20G30   29.49R WCI   4
$$

  *****  WEATHER ACROSS SOUTH DAKOTA  *****

CITY           SKY/WX    TMP DP  RH WIND       PRES   REMARKS
SIOUX FALLS    PTSUNNY   22  12  65 NW29G35   29.72R WCI   4
BROOKINGS      NOT AVBL
WATERTOWN      LGT SNOW  16   9  74 NW24      29.71R WCI  -2
HURON          SUNNY     24  12  60 NW28G36   29.81R WCI   7
SISSETON         N/A     17   9  70 N28G38    29.73R WCI  -2
ABERDEEN       SUNNY     25  13  60 N25G32    29.82S WCI   9
MITCHELL       SUNNY     28  13  53 NW28G35   29.82R WCI  13
PIERRE         SUNNY     28   9  44 NW20      29.90R WCI  15
MOBRIDGE       SUNNY     26   8  46 NW15G24   29.88R WCI  14
RAPID CITY     HVY SNOW  28  25  88 NW6       29.91R VSB 1/4 WCI  22
$$

  *****  SOME WEATHER IN NEARBY STATES *****

CITY           SKY/WX    TMP DP  RH WIND       PRES   REMARKS
GLASGOW MT     MOSUNNY   31  22  69 NW12      30.01R WCI  22
GREAT FALLS MT MOSUNNY   43  18  36 W22G29    30.10F
CHEYENNE WY    HAZE      29  17  61 N25G39    29.96R VSB 1   WCI  14
SCOTTSBLUFF NE CLOUDY    39  24  55 NW30G37   29.94R
OMAHA NE       CLOUDY    31  19  61 NW22G32   29.77R WCI  18
DES MOINES IA  FLURRIES  27  17  66 NW28G38   29.65R WCI  11
DAVENPORT IA   SNOW      27  23  85 W25G31    29.52R VSB 1/2 WCI  12
CHICAGO IL     LGT SNOW  31  28  89 W22G33    29.36R VSB 1   WCI  18
EAU CLAIRE WI  LGT SNOW  27  23  85 NW21      29.35R VSB 1   WCI  13
LA CROSSE WI   LGT SNOW  29  24  82 NW15G26   29.38R WCI  18
$$

  *****  SOME NATIONAL WEATHER *****

CITY           SKY/WX    TMP DP  RH WIND       PRES   REMARKS
LA GUARDIA NY  MOSUNNY   63  57  81 S17       29.58F
RALEIGH NC     PTSUNNY   72  60  66 SW18      29.78S
ATLANTA GA     PTSUNNY   75  54  47 W10       29.79F
NEW ORLEANS LA PTSUNNY   69  50  50 NW12      29.88F
OKLAHOMA CITY  MOSUNNY   57  22  25 NW16G30   29.97F
ALBUQUERQUE NM MOSUNNY   41   6  23 VRB7      30.13F
SALT LAKE CITY MOSUNNY   41  22  46 N20       30.36S
LOS ANGELES CA MOSUNNY   74  14  10 VRB3      30.23F
BOISE ID       SUNNY     44  29  55 NW9       30.44F
SEATTLE WA     CLOUDY    44  34  67 S7        30.32F
$$

*** WEATHER ACROSS MANITOBA...SASKATCHEWAN AND ONTARIO ***
                ***ONTARIO***

CITY           SKY/WX    TMP DP  RH WIND       PRES   REMARKS
GERALDTON      LGT SNOW  18  14  86 N14G23    29.26R VSB 1   WCI   4
THUNDER BAY    FLURRIES  21  14  73 NW9G21    29.34R WCI  11
SIOUX LOOKOUT  FLURRIES  12   7  79 N9G21     29.57R WCI   0
TORONTO        CLOUDY    59  48  67 SW30G44   29.17R
BIG TROUT LK   SUNNY      5   1  85 NW9       29.73S WCI  -9
PICKLE LAKE    FLURRIES  10   5  79 N8G21     29.58R WCI  -1
DRYDEN         FLURRIES  14   9  79 N10G20    29.59R WCI   1
KENORA         FLURRIES  12   7  79 N12G17    29.67R WCI  -2
$$
                *** MANITOBA***

CITY           SKY/WX    TMP DP  RH WIND       PRES   REMARKS
BRANDON        MOSUNNY   16   3  57 W12       29.92F WCI   3
DAUPHIN        PTSUNNY    9  -4  56 SW7       29.94F WCI  -3
ISLAND LAKE    MOSUNNY   -4 -11  71 W6        29.86F WCI -16
PILOT MOUND      N/A     10  -2  56 NW14        N/A  WCI  -5
THE PAS        PTSUNNY   10   1  67 W9        29.88R WCI  -2
THOMPSON       LGT SNOW   0  -6  78 SW7       29.82F WCI -13
WINNIPEG       MOSUNNY   10   3  72 NW15      29.88S WCI  -6
LYNN LAKE      LGT SNOW   7   3  85 NW9       29.79R WCI  -7
CHURCHILL      LGT SNOW   0  -4  85 W10       29.80S WCI -17
GILLAM           N/A      1  -8  66 S9        29.81  WCI -14
$$
                ***SASKATCHEWAN***

CITY           SKY/WX    TMP DP  RH WIND       PRES   REMARKS
ESTEVAN        CLOUDY    16  12  86 W12       29.94S WCI   3
KINDERSLEY     PTSUNNY   32  27  80 W12       29.95R WCI  23
LLOYDMINSTER   CLOUDY    21  18  86 NW12      29.94F WCI   9
PRINCE ALBERT  PTSUNNY   18  14  86 NW9       29.90R WCI   6
REGINA         FLURRIES  21  16  79 SW6       29.90F WCI  14
YORKTON        CLOUDY     9   5  85 S6        29.90F WCI  -1
N. BATTLEFORD  CLOUDY    21  18  86 NW16G22   29.97R WCI   7
LA RONGE       LGT SNOW  10   7  85 NW9       29.90R VSB 1   WCI  -2
SASKATOON      MOSUNNY   21  16  79 NW13      29.92R WCI   9
SWIFT CURRENT  CLOUDY    28  27  93 W18       29.93S WCI  16
$$
NOTE: THESE ARE AUTOMATED STATIONS WITH LIMITED QUALITY CONTROL
      "FAIR" INDICATES FEW OR NO CLOUDS BELOW 12,000 FEET WITH NO
      SIGNIFICANT WEATHER AND/OR OBSTRUCTIONS TO VISIBILITY.
      SKY/WX - SKY CONDITION AND SIGNIFICANT WEATHER.
      TMP - AIR TEMPERATURE.    DP   - DEWPOINT TEMPERATURE.
      RH  - RELATIVE HUMIDITY.  PRES - PRESSURE.
      HX  - HEAT INDEX.         WCI  - WIND CHILL INDEX.
$


USA.gov is the U.S. government's official web portal to all federal, state and local government web resources and services.